www.pogodaiklimat.ru
ПОГОДА в Дюбуа
Время
и дата
00:53 06.02
01:02 06.02
01:53 06.02
02:07 06.02
02:53 06.02
03:02 06.02
03:11 06.02
03:34 06.02
03:53 06.02
04:01 06.02
04:19 06.02
04:53 06.02
05:03 06.02
05:49 06.02
05:53 06.02
06:24 06.02
06:39 06.02
06:53 06.02
07:13 06.02
07:53 06.02
08:53 06.02
09:02 06.02
09:14 06.02
09:42 06.02
09:53 06.02
10:31 06.02
10:48 06.02
10:53 06.02
11:01 06.02
11:13 06.02
11:33 06.02
11:51 06.02
11:53 06.02
12:01 06.02
12:53 06.02
13:25 06.02
13:53 06.02
14:53 06.02
15:53 06.02
16:53 06.02
17:53 06.02
18:53 06.02
19:53 06.02
20:53 06.02
21:53 06.02
22:28 06.02
22:53 06.02
23:53 06.02
Ветер
(напр.,м/с)
Видим. Явления Облачность Т
(С)
Тd
(С)
f
(%)
Тe
(С)
Тes
(С)
Комфортность P
(гПа)
Po
(гПа)
Тmin
(С)
Tmax
(С)
R
(мм)
R24
(мм)
S
(см)
З 3 16 км 10/10 990 м +5.6 -0.6 64 +3 +3 1013.7 948.1 +5.0 +7.8
З 3 16 км 10/10 870 м +5.6 -0.6 64 +3 +3 948.1
З 3 16 км 10/10 840 м +5.0 -0.6 67 +2 +2 1014.3 948.5
З 3 16 км 10/10 720 м +5.0 -0.6 67 +2 +2 948.5
З 4 16 км 10/10 720 м +5.0 0.0 70 +1 +1 1014.5 948.8
З 5 16 км 10/10 660 м +4.4 0.0 73 0 0 948.8
З 5 16 км 10/10 600 м +4.4 0.0 73 0 0 949.1
СЗ 4 14 км 10/10 270 м +3.3 +0.6 82 -1 -1 949.4
СЗ 3 16 км 10/10 330 м +3.3 +0.6 82 -1 -1 1015.6 949.7
СЗ 3 16 км 10/10 300 м +3.3 +0.6 82 -1 -1 949.7
СЗ 2 16 км 10/10 660 м +2.8 +0.6 85 0 0 949.7
СЗ 2 16 км 10/10 330 м +2.8 0.0 82 0 0 1015.9 949.7
З 2 14 км 10/10 300 м +2.8 0.0 82 0 0 950.0
З 3 14 км 10/10 270 м +2.0 0.0 87 -2 -2 950.4
З 3 14 км 10/10 270 м +2.2 0.0 85 -2 -2 1016.7 950.7
СЗ 4 14 км 10/10 270 м +2.2 0.0 85 -3 -3 951.0
З 3 14 км 10/10 270 м +2.2 -0.6 82 -2 -2 951.0
З 3 14 км 10/10 270 м +2.2 -0.6 82 -2 -2 1017.7 951.3 +2.2 +5.0
СЗ 3 13 км 10/10 270 м +2.2 -0.6 82 -2 -2 951.6
СЗ 3 8 км мгла 10/10 210 м +2.2 -0.6 82 -2 -2 1018.9 952.6
СЗ 5 5 км дымка 10/10 180 м +1.7 -0.6 85 -4 -4 1020.0 953.5
СЗ 4 4 км дымка 10/10 150 м +1.7 -0.6 85 -3 -3 953.8
СЗ 4 3 км дымка 10/10 120 м +1.7 -0.6 85 -3 -3 953.8
СЗ 6
{9}
5 км дымка 10/10 150 м +1.1 -0.6 88 -5 -5 954.2
СЗ 4 8 км дымка 10/10 150 м +1.1 -0.6 88 -4 -4 1021.0 954.5
СЗ 6 8 км дымка 10/10 120 м +1.1 -1.1 85 -5 -5 954.8
СЗ 5 6 км дымка 10/10 150 м +1.0 -2.0 80 -5 -5 955.1
СЗ 6 5 км дымка 10/10 150 м +0.6 -1.7 85 -6 -6 1022.1 955.4
СЗ 6 4 км дымка 10/10 150 м +0.6 -1.7 85 -6 -6 955.4
С 6
{8}
4 км дымка 10/10 120 м +0.6 -1.7 85 -6 -6 955.8
СЗ 5 5 км дымка 10/10 120 м 0.0 -1.7 88 -6 -6 956.1
С 5 10 км мгла 10/10 150 м +1.0 -2.0 80 -5 -5 955.8
СЗ 5 10 км мгла 10/10 150 м +0.6 -2.2 81 -5 -5 1022.7 955.8
С 5 10 км мгла 10/10 240 м +0.6 -2.2 81 -5 -5 956.1
нст 3 11 км 10/10 300 м +0.6 -2.8 78 -4 -4 1022.5 955.8 +2.2
СЗ 3 16 км 10/10 480 м +0.6 -3.3 75 -4 -4 955.8
СЗ 4 16 км 10/10 510 м +1.1 -3.9 69 -4 -4 1022.5 955.8
С 3 16 км 10/10 510 м +1.1 -3.9 69 -3 -3 1022.6 955.8
С 2 16 км 10/10 510 м +1.1 -3.9 69 -2 -2 1023.0 956.1
нст 2 16 км 10/10 510 м +0.6 -3.9 72 -3 -3 1024.1 957.0
СЗ 2 16 км 10/10 510 м +0.6 -3.9 72 -3 -3 1024.4 957.0
штиль 0 16 км 10/10 510 м +0.6 -4.4 69 0 0 1024.8 957.3 +0.6 +1.1
штиль 0 16 км 10/10 480 м 0.0 -4.4 72 -1 -1 1025.1 957.7
ЮЗ 2 16 км 10/10 450 м 0.0 -4.4 72 -3 -3 1024.7 957.3
штиль 0 16 км 10/10 450 м 0.0 -4.4 72 -1 -1 1024.5 957.3
Ю 2 16 км 10/10 420 м -0.6 -5.0 72 -4 -4 957.3
ЮВ 3 16 км 10/10 420 м -0.6 -5.0 72 -5 -5 1024.5 957.0
Ю 2 16 км 10/10 390 м -0.6 -5.0 72 -4 -4 1024.6 957.0
Местоположение метеостанции Du Bois-Jefferson County Airport: широта 41.1833 долгота -78.9000 высота над уровнем моря 555 м.
В архиве по умолчанию представлена погода в Дюбуа за последние 1-2 суток. Обновление информации о фактической погоде в базе происходит ежечасно! Архивные данные за месяц целиком и за предыдущие месяцы Вы можете получить, выбрав интересующий диапазон дат из раскрывающегося списка и нажав кнопку "Ввод!".
Внимание! Архив погоды МЕТАР в базе сайта по станциям, не включенным в климатический монитор, хранится не более 60 дней. Нет смысла пытаться выбрать более раннюю дату.
*Определитесь, кто Вы:
Внимание! Время в таблицах - местное (без учета летнего времени). Для получения всемирного времени необходимо вычесть поправку, которая равна -5 ч.
Смотрите также архив погоды в соседних городах и на ближайших метеорологических станциях:
Партнеры нашего сайта:      
Пояснения к столбцам:
  • Ветер - указаны скорость ветра в м/с - средняя за 10 мин, порывы в срок и между сроками (в фигурных скобках) и направление, откуда дует ветер: С - северный,
  • СВ - северо-восточный, В - восточный, ЮВ - юго-восточный, Ю - южный, ЮЗ - юго-западный, З - западный, СЗ - северо-западный.
  • Видимость - горизонтальная дальность видимости в метрах или километрах. При видимости от 1 до 10 км при отсутствии осадков обычно наблюдается дымка, при ухудшении видимости до 1 км и менее - туман. В сухую погоду видимость может ухудшаться дымом, пылью или мглою.
  • Явления - указаны атмосферные явления, наблюдавшиеся в срок или в последний час перед сроком; фигурными скобками обозначены явления, наблюдавшиеся между сроками (за 1-3 часа до срока); квадратными скобками обозначены град или гололедные отложения с указанием их диаметра в мм.
  • Облачность - указаны через наклонную черту общая и нижняя облачность в баллах и высота нижней границы облаков в метрах; квадратными скобками обозначены формы облаков: Ci - перистые, Cs - перисто-слоистые, Cc - перисто-кучевые, Ac - высококучевые, As - высокослоистые, Sc - слоисто-кучевые, Ns - слоисто-дождевые, Cu - кучевые, Cb - кучево-дождевые. Подробнее классификацию облаков см. в Атласе облаков (PDF).
  • T - Температура воздуха - температура, измеренная на высоте 2 м над землей.
  • Td - Температура точки росы - температура, при понижении до которой содержащийся в воздухе водяной пар достигнет насыщения.
  • f - Относительная влажность воздуха - влажноcть воздуха, измеренная на высоте 2 м над землей.
  • Te - Эффективная температура - температура, которую ощущает одетый по сезону человек в тени. Характеристика душности погоды. При расчете учитывается влияние влажности воздуха и скорости ветра на теплоощущения человека.
  • Tes - Эффективная температура на солнце - температура, которую ощущает человек, с поправкой на солнечный нагрев. Характеристика знойности погоды. Зависит от высоты солнца над горизонтом, облачности и скорости ветра. Ночью, в пасмурную погоду, а также при ветре 12 м/с и более поправка равна нулю.
  • P - Атмосферное давление - приведенное к уровню моря атмосферное давление.
  • Po - Атмосферное давление - измеренное на уровне метеостанции атмосферное давление.
  • Tmin - Минимальная температура - минимум температуры воздуха на высоте 2 м над землей.
  • Tmax - Максимальная температура - максимум температуры воздуха на высоте 2 м над землей.
  • R - Количество осадков - Количество выпавших осадков за период времени, мм. При наведении курсора мыши на число - период времени, за который выпало указанное количество осадков.
  • R24 - Количество осадков - Количество выпавших осадков за 24 часа, мм.
  • S - Снежный покров - Высота снежного покрова, см. При наведении курсора мыши на число - состояние снежного покрова и степень покрытия местности в баллах.